When you browse on this site, cookies collect data to enhance your experience and personalize the content and advertising you see.
Visit our Privacy Policy to learn more. By continuing to use the site, you agree to this use of cookies and data.
  • In Spain
  • List of Countries
  • For 7 days
  • Water Temperature
  • Satellite Maps
  • Weather Map
  • Weather Widgets
  • user-avatar
    Login

    Hourly Weather Gonchary

    Today, 17 July, Wednesday

    Time Temperature Precipitation Wind Pressure Humidity
    00:00 +11°C° 0 mm 1 mps 736 mmHg 90%
    01:00 +11°C° 0 mm 1 mps 736 mmHg 91%
    02:00 +11°C° 0 mm 1 mps 736 mmHg 92%
    03:00 +12°C° 0 mm 1 mps 736 mmHg 91%
    04:00 +12°C° 0 mm 2 mps 736 mmHg 90%
    05:00 +12°C° 0 mm 2 mps 736 mmHg 89%
    06:00 +13°C° 0.1 mm 2 mps 736 mmHg 88%
    07:00 +14°C° 0.1 mm 1 mps 736 mmHg 87%
    08:00 +13°C° 0 mm 0 mps 736 mmHg 85%
    09:00 +15°C° 0.2 mm 1 mps 736 mmHg 84%
    10:00 +16°C° 0.2 mm 1 mps 736 mmHg 83%
    11:00 +17°C° 0.2 mm 2 mps 736 mmHg 82%
    12:00 +17°C° 0.2 mm 2 mps 735 mmHg 79%
    13:00 +18°C° 0.2 mm 2 mps 735 mmHg 75%
    14:00 +19°C° 0.2 mm 2 mps 735 mmHg 72%
    15:00 +18°C° 0.1 mm 2 mps 735 mmHg 73%
    16:00 +19°C° 0.1 mm 1 mps 735 mmHg 74%
    17:00 +19°C° 0.1 mm 1 mps 735 mmHg 76%
    18:00 +18°C° 0.2 mm 1 mps 735 mmHg 78%
    19:00 +16°C° 0.2 mm 1 mps 734 mmHg 81%
    20:00 +15°C° 0.2 mm 1 mps 734 mmHg 84%
    21:00 +15°C° 0.1 mm 1 mps 734 mmHg 84%
    22:00 +15°C° 0.1 mm 1 mps 734 mmHg 84%
    23:00 +15°C° 0.1 mm 1 mps 734 mmHg 85%

    Tomorrow, 18 July, Thursday

    Time Temperature Precipitation Wind Pressure Humidity
    00:00 +14°C° 0.1 mm 1 mps 734 mmHg 87%
    01:00 +14°C° 0.1 mm 2 mps 734 mmHg 89%
    02:00 +14°C° 0.1 mm 2 mps 734 mmHg 91%
    03:00 +14°C° 0.2 mm 2 mps 734 mmHg 92%
    04:00 +14°C° 0.2 mm 1 mps 734 mmHg 94%
    05:00 +14°C° 0.2 mm 1 mps 734 mmHg 95%
    06:00 +14°C° 0.5 mm 1 mps 734 mmHg 94%
    07:00 +15°C° 0.5 mm 2 mps 734 mmHg 94%
    08:00 +15°C° 0.5 mm 2 mps 734 mmHg 93%
    09:00 +15°C° 0.5 mm 2 mps 734 mmHg 94%
    10:00 +14°C° 0.5 mm 3 mps 734 mmHg 95%
    11:00 +14°C° 0.5 mm 3 mps 734 mmHg 96%
    12:00 +14°C° 0.3 mm 3 mps 734 mmHg 95%
    13:00 +14°C° 0.3 mm 3 mps 734 mmHg 95%
    14:00 +14°C° 0.3 mm 3 mps 734 mmHg 95%
    15:00 +14°C° 0.2 mm 3 mps 734 mmHg 94%
    16:00 +16°C° 0.2 mm 3 mps 734 mmHg 93%
    17:00 +16°C° 0.2 mm 2 mps 734 mmHg 92%
    18:00 +16°C° 0.3 mm 2 mps 734 mmHg 94%
    19:00 +15°C° 0.3 mm 2 mps 734 mmHg 96%
    20:00 +14°C° 0.3 mm 2 mps 734 mmHg 98%
    21:00 +14°C° 0.3 mm 2 mps 734 mmHg 97%
    22:00 +13°C° 0.3 mm 3 mps 734 mmHg 97%
    23:00 +13°C° 0.3 mm 3 mps 735 mmHg 97%

    Day after tomorrow, 19 July, Friday

    Time Temperature Precipitation Wind Pressure Humidity
    00:00 +13°C° 0.8 mm 3 mps 735 mmHg 97%
    01:00 +13°C° 0.8 mm 4 mps 735 mmHg 97%
    02:00 +14°C° 0.8 mm 5 mps 735 mmHg 97%
    03:00 +14°C° 0.3 mm 5 mps 735 mmHg 97%
    04:00 +14°C° 0.3 mm 5 mps 735 mmHg 97%
    05:00 +14°C° 0.3 mm 5 mps 735 mmHg 96%
    06:00 +14°C° 0.1 mm 5 mps 735 mmHg 96%
    07:00 +14°C° 0.1 mm 6 mps 736 mmHg 95%
    08:00 +14°C° 0.1 mm 6 mps 736 mmHg 94%
    09:00 +14°C° 0.1 mm 6 mps 736 mmHg 93%
    10:00 +15°C° 0.1 mm 6 mps 737 mmHg 91%
    11:00 +15°C° 0.1 mm 5 mps 737 mmHg 90%
    12:00 +16°C° 0.5 mm 6 mps 737 mmHg 88%
    13:00 +16°C° 0.5 mm 6 mps 738 mmHg 87%
    14:00 +17°C° 0.5 mm 7 mps 738 mmHg 85%
    15:00 +16°C° 0.2 mm 6 mps 738 mmHg 86%
    16:00 +16°C° 0.2 mm 5 mps 738 mmHg 86%
    17:00 +16°C° 0.2 mm 5 mps 739 mmHg 87%
    18:00 +15°C° 0 mm 4 mps 739 mmHg 88%
    19:00 +15°C° 0 mm 4 mps 739 mmHg 89%
    20:00 +16°C° 0 mm 3 mps 739 mmHg 90%
    21:00 +14°C° 0 mm 3 mps 740 mmHg 90%
    22:00 +14°C° 0 mm 3 mps 740 mmHg 91%
    23:00 +13°C° 0 mm 4 mps 740 mmHg 91%

    20 July, Saturday

    Time Temperature Precipitation Wind Pressure Humidity
    00:00 +13°C° 0 mm 4 mps 740 mmHg 93%
    01:00 +13°C° 0 mm 4 mps 740 mmHg 94%
    02:00 +12°C° 0 mm 4 mps 741 mmHg 95%
    03:00 +12°C° 0 mm 3 mps 741 mmHg 95%
    04:00 +12°C° 0 mm 3 mps 741 mmHg 95%
    05:00 +12°C° 0 mm 3 mps 741 mmHg 95%
    06:00 +13°C° 0 mm 4 mps 741 mmHg 90%
    07:00 +15°C° 0 mm 4 mps 742 mmHg 84%
    08:00 +17°C° 0 mm 4 mps 742 mmHg 79%
    09:00 +17°C° 0.2 mm 5 mps 742 mmHg 78%
    10:00 +19°C° 0.2 mm 5 mps 743 mmHg 76%
    11:00 +20°C° 0.2 mm 5 mps 743 mmHg 75%
    12:00 +20°C° 0.6 mm 5 mps 743 mmHg 77%
    13:00 +20°C° 0.6 mm 5 mps 743 mmHg 79%
    14:00 +20°C° 0.6 mm 4 mps 743 mmHg 81%
    15:00 +20°C° 0.5 mm 4 mps 743 mmHg 81%
    16:00 +20°C° 0.5 mm 4 mps 744 mmHg 81%
    17:00 +20°C° 0.5 mm 4 mps 744 mmHg 81%
    18:00 +19°C° 0.1 mm 3 mps 744 mmHg 84%
    19:00 +18°C° 0.1 mm 3 mps 744 mmHg 88%
    20:00 +16°C° 0.1 mm 2 mps 744 mmHg 92%
    21:00 +16°C° 0 mm 2 mps 744 mmHg 92%
    22:00 +15°C° 0 mm 2 mps 745 mmHg 93%
    23:00 +14°C° 0 mm 2 mps 745 mmHg 94%

    21 July, Sunday

    Time Temperature Precipitation Wind Pressure Humidity
    00:00 +14°C° 0 mm 2 mps 745 mmHg 95%
    01:00 +14°C° 0 mm 2 mps 745 mmHg 95%
    02:00 +13°C° 0 mm 2 mps 745 mmHg 96%
    03:00 +13°C° 0 mm 2 mps 745 mmHg 96%
    04:00 +13°C° 0 mm 2 mps 745 mmHg 96%
    05:00 +13°C° 0 mm 2 mps 745 mmHg 97%
    06:00 +15°C° 0 mm 2 mps 746 mmHg 92%
    07:00 +16°C° 0 mm 2 mps 746 mmHg 87%
    08:00 +18°C° 0 mm 2 mps 746 mmHg 82%
    09:00 +19°C° 0 mm 2 mps 746 mmHg 76%
    10:00 +20°C° 0 mm 2 mps 746 mmHg 70%
    11:00 +21°C° 0 mm 2 mps 746 mmHg 64%
    12:00 +22°C° 0 mm 3 mps 746 mmHg 64%
    13:00 +22°C° 0 mm 3 mps 746 mmHg 64%
    14:00 +22°C° 0 mm 4 mps 746 mmHg 64%
    15:00 +22°C° 0 mm 3 mps 746 mmHg 66%
    16:00 +22°C° 0 mm 3 mps 746 mmHg 68%
    17:00 +22°C° 0 mm 3 mps 745 mmHg 69%
    18:00 +20°C° 0 mm 2 mps 745 mmHg 75%
    19:00 +19°C° 0 mm 2 mps 745 mmHg 81%
    20:00 +18°C° 0 mm 1 mps 745 mmHg 87%
    21:00 +16°C° 0 mm 1 mps 745 mmHg 88%
    22:00 +15°C° 0 mm 1 mps 746 mmHg 89%
    23:00 +15°C° 0 mm 1 mps 746 mmHg 90%

    22 July, Monday

    Time Temperature Precipitation Wind Pressure Humidity
    00:00 +14°C° 0 mm 1 mps 746 mmHg 91%
    01:00 +14°C° 0 mm 1 mps 745 mmHg 92%
    02:00 +13°C° 0 mm 1 mps 745 mmHg 92%
    03:00 +13°C° 0 mm 1 mps 745 mmHg 93%
    04:00 +13°C° 0 mm 1 mps 745 mmHg 93%
    05:00 +13°C° 0 mm 1 mps 745 mmHg 94%
    06:00 +15°C° 0 mm 1 mps 745 mmHg 88%
    07:00 +18°C° 0 mm 1 mps 746 mmHg 82%
    08:00 +20°C° 0 mm 1 mps 746 mmHg 76%
    09:00 +21°C° 0 mm 1 mps 746 mmHg 69%
    10:00 +22°C° 0 mm 1 mps 746 mmHg 63%
    11:00 +24°C° 0 mm 1 mps 746 mmHg 57%
    12:00 +24°C° 0 mm 1 mps 746 mmHg 54%
    13:00 +25°C° 0 mm 2 mps 745 mmHg 51%
    14:00 +25°C° 0 mm 2 mps 745 mmHg 48%
    15:00 +25°C° 0 mm 2 mps 745 mmHg 52%
    16:00 +25°C° 0 mm 2 mps 745 mmHg 56%
    17:00 +24°C° 0 mm 2 mps 745 mmHg 60%
    18:00 +21°C° 0 mm 2 mps 745 mmHg 65%
    19:00 +19°C° 0 mm 2 mps 745 mmHg 69%
    20:00 +17°C° 0 mm 2 mps 745 mmHg 74%
    21:00 +16°C° 0 mm 2 mps 745 mmHg 76%
    22:00 +15°C° 0 mm 2 mps 745 mmHg 79%
    23:00 +15°C° 0 mm 2 mps 745 mmHg 82%
    Show more